Lid_Strength_Index
5 5 5 4 4 4 4 4 5 4 4 4 4 5 5 6 7 10 11 11 11 14 14 14 14 15 16 15 15 16 16 17 17 17 17 16 17 16 18 16 17 17 18 18 19 20 19 14 14 15 12 13 11 11
5 5 5 5 4 4 4 4 5 5 5 5 4 5 5 6 7 9 12 11 11 13 13 13 12 12 13 13 14 16 16 16 15 16 17 16 17 18 17 18 17 18 15 15 15 14 13 12 11 11 13 11 12 10
5 6 6 6 5 5 5 4 4 4 5 4 4 4 5 5 6 8 11 12 11 14 14 14 14 11 12 13 12 14 16 15 16 15 14 15 17 16 18 18 17 16 15 16 15 12 13 13 11 11 11 12 11 10
6 6 6 6 5 5 5 5 5 4 4 4 4 4 4 5 5 7 11 11 11 13 17 15 13 13 12 12 13 13 15 15 15 15 15 16 17 15 17 17 18 15 16 15 16 13 13 12 12 11 11 11 11 11
6 6 7 6 5 5 5 5 5 5 4 4 4 4 4 5 5 6 9 10 10 13 16 15 13 14 14 13 13 14 14 15 15 16 16 17 16 17 17 19 19 15 14 16 15 11 12 11 10 11 11 12 11 11
6 6 6 6 5 5 4 5 4 5 5 4 4 4 5 5 5 8 12 10 9 10 14 17 14 16 15 15 14 14 14 14 14 15 15 15 16 16 18 19 15 13 12 12 13 11 10 10 11 11 12 11 11 11
5 5 5 5 5 4 4 4 4 4 5 5 5 4 5 5 5 9 12 9 8 9 15 16 16 17 16 15 16 15 15 15 15 15 17 16 17 16 17 18 15 14 12 12 11 11 13 12 12 11 11 11 11 11
4 4 4 4 4 4 4 3 3 3 4 5 5 5 4 5 5 8 8 7 7 10 12 15 16 17 15 17 17 15 17 17 16 16 17 18 17 17 19 16 14 13 12 12 12 12 12 11 11 11 11 12 12 12
3 3 3 3 3 3 3 3 3 3 2 2 3 4 5 7 10 10 6 5 6 10 14 15 16 19 16 17 16 17 16 19 16 18 18 17 18 20 17 16 14 13 14 13 13 12 12 13 13 13 12 13 13 12
2 2 2 3 2 2 2 2 2 2 2 2 3 6 12 11 6 7 8 10 12 13 12 14 13 18 16 17 18 17 17 17 20 18 17 19 18 15 14 14 13 12 12 13 15 15 14 14 14 13 13 12 12 12
2 2 2 2 2 2 2 2 2 2 1 3 6 8 5 4 7 11 14 14 13 14 13 13 14 17 15 17 17 16 18 17 20 18 19 19 20 17 14 13 12 12 12 12 13 13 12 12 12 13 13 13 13 12
1 1 1 2 1 1 1 1 1 2 3 4 5 4 4 8 10 12 13 12 13 15 13 14 14 12 14 12 15 16 17 17 19 17 20 22 17 15 14 14 13 13 13 13 12 13 12 13 12 13 13 12 13 12
1 1 1 1 1 0 1 1 1 1 2 3 6 9 9 9 12 13 15 13 13 13 11 12 14 13 14 12 14 15 17 19 16 19 21 18 16 15 14 15 15 14 15 14 14 14 14 14 13 13 13 13 13 13
0 0 0 0 0 -0 -0 0 -0 1 3 7 8 12 11 11 11 12 11 10 8 10 10 10 13 13 12 14 14 17 15 17 20 21 20 17 15 13 14 15 15 15 15 15 14 14 14 14 13 13 13 13 13 13
-0 -0 -0 0 -0 -0 -0 -0 -1 1 4 8 7 11 12 10 8 8 8 9 9 7 8 9 11 11 13 13 13 14 18 18 18 18 16 14 13 13 14 15 15 14 15 14 14 14 14 14 14 14 13 13 13 13
-0 0 1 -0 -0 -0 -1 -1 0 1 5 7 7 10 9 10 10 10 11 8 7 7 7 9 11 13 13 12 14 16 18 18 14 14 13 12 13 13 13 14 14 14 14 14 14 14 14 14 14 14 14 14 13 13
0 3 0 -0 -1 -1 -1 1 3 6 7 9 10 8 8 8 8 7 8 8 5 7 9 9 12 12 10 13 14 14 16 11 9 12 11 12 12 13 13 13 14 14 14 14 14 14 14 14 14 14 14 14 14 13
2 1 -0 -0 -1 0 1 3 5 6 9 9 11 8 7 6 7 7 6 6 7 8 8 10 8 11 13 13 13 10 10 9 9 9 10 11 12 12 13 13 13 13 14 14 14 14 15 15 14 14 14 14 15 15
1 1 -0 -1 -0 3 5 5 5 9 10 9 8 7 7 7 6 5 5 5 5 5 6 8 11 12 11 9 9 8 9 9 9 10 11 10 11 12 13 13 14 14 14 15 15 13 13 13 13 13 13 14 14 14
-1 -1 -1 -1 -0 4 6 6 5 7 11 9 8 8 8 8 7 6 6 5 6 7 9 10 10 8 8 7 6 7 8 8 9 11 11 12 12 12 12 12 13 13 14 15 15 14 14 15 15 14 14 14 15 15
0 0 -0 0 3 4 5 6 8 9 9 9 8 8 8 7 7 7 7 5 7 8 9 7 7 5 5 4 7 8 8 8 9 8 9 10 12 12 13 13 14 14 14 14 14 14 13 14 14 14 14 14 14 14
2 -0 3 2 4 5 6 6 9 9 9 9 9 8 9 9 9 8 6 8 8 7 6 6 6 6 7 8 7 9 8 9 10 10 10 10 13 13 13 13 14 14 14 13 13 13 13 13 14 15 15 15 15 15
0 1 4 4 6 8 10 7 9 10 12 13 10 11 10 10 8 6 9 8 7 6 5 6 6 7 8 8 9 9 10 9 9 9 10 10 11 12 12 13 13 13 13 13 14 13 13 14 13 15 15 15 15 14
0 4 6 7 8 12 11 10 9 11 11 11 11 13 12 10 8 9 10 9 7 7 7 7 7 8 11 11 9 9 10 10 9 11 10 10 11 12 12 12 13 12 11 13 13 13 14 14 13 14 14 14 13 13
7 8 7 12 11 11 13 15 12 11 12 11 12 12 12 11 12 12 14 12 9 9 8 8 8 8 9 9 8 9 9 10 11 11 11 10 10 11 12 12 13 13 13 13 14 14 15 14 12 13 13 13 13 14
11 10 11 14 15 13 14 14 16 15 13 13 13 13 13 14 15 16 14 10 10 10 9 9 9 9 9 8 8 8 9 10 9 9 9 10 10 10 10 11 13 13 13 12 13 14 13 12 12 13 13 12 11 14
13 16 11 9 11 11 13 13 13 14 15 15 15 15 15 17 17 14 13 13 12 11 12 9 8 9 9 8 8 10 10 11 11 10 9 11 11 10 10 11 12 12 14 13 11 11 11 12 13 13 13 12 12 14
11 13 14 12 13 12 13 13 14 14 13 13 15 17 17 16 15 12 14 17 19 19 19 18 18 13 11 12 12 14 15 15 14 14 14 14 15 15 14 14 14 13 12 12 10 10 11 12 13 13 13 14 15 15
13 13 12 15 14 14 14 14 13 13 12 14 15 14 15 14 15 15 17 19 21 20 17 16 16 16 15 16 16 15 14 14 14 14 14 14 15 14 16 15 12 11 10 10 10 11 12 13 12 13 15 16 17 17
16 12 14 16 17 16 13 14 15 16 16 16 16 16 16 16 16 19 20 20 20 18 18 18 15 14 15 14 15 15 14 13 14 14 15 15 14 12 12 12 11 10 10 11 12 12 11 12 13 16 18 18 18 18
13 14 15 14 14 14 17 17 17 18 18 18 18 18 16 17 18 19 20 21 21 22 19 17 16 14 14 14 14 15 16 15 13 13 15 16 13 12 11 11 11 11 12 12 13 14 15 17 18 18 18 19 18 19
15 15 15 17 18 18 18 18 18 18 19 19 18 21 19 18 16 16 21 22 21 20 18 17 17 17 16 15 14 14 13 14 13 12 12 13 12 11 11 12 12 12 13 15 16 17 17 17 18 18 19 19 20 20
19 18 18 18 19 19 18 18 19 19 20 22 22 23 23 20 17 18 23 22 20 19 19 19 19 20 21 19 16 15 14 16 14 11 11 11 11 11 12 12 13 15 16 17 17 17 17 18 19 19 20 20 21 20